Year,Month,Day,Hour,Minute,Value (Times are PST for temperature in C)
2013,09,11,00,00,15.50
2013,09,11,00,01,15.50
2013,09,11,00,02,15.50
2013,09,11,00,03,15.50
2013,09,11,00,04,15.40
2013,09,11,00,05,15.40
2013,09,11,00,06,15.40
2013,09,11,00,07,15.40
2013,09,11,00,08,15.30
2013,09,11,00,09,15.30
2013,09,11,00,10,15.30
2013,09,11,00,11,15.30
2013,09,11,00,12,15.30
2013,09,11,00,13,15.30
2013,09,11,00,14,15.30
2013,09,11,00,15,15.30
2013,09,11,00,16,15.30
2013,09,11,00,17,15.30
2013,09,11,00,18,15.30
2013,09,11,00,19,15.30
2013,09,11,00,20,15.30
2013,09,11,00,21,15.30
2013,09,11,00,22,15.30
2013,09,11,00,23,15.20
2013,09,11,00,24,15.20
2013,09,11,00,25,15.20
2013,09,11,00,26,15.20
2013,09,11,00,27,15.20
2013,09,11,00,28,15.20
2013,09,11,00,29,15.20
2013,09,11,00,30,15.20
2013,09,11,00,31,15.20
2013,09,11,00,32,15.20
2013,09,11,00,33,15.20
2013,09,11,00,34,15.20
2013,09,11,00,35,15.20
2013,09,11,00,36,15.20
2013,09,11,00,37,15.20
2013,09,11,00,38,15.20
2013,09,11,00,39,15.20
2013,09,11,00,40,15.20
2013,09,11,00,41,15.20
2013,09,11,00,42,15.10
2013,09,11,00,43,15.10
2013,09,11,00,44,15.10
2013,09,11,00,45,15.10
2013,09,11,00,46,15.10
2013,09,11,00,47,15.00
2013,09,11,00,48,15.00
2013,09,11,00,49,15.00
2013,09,11,00,50,15.00
2013,09,11,00,51,15.00
2013,09,11,00,52,15.00
2013,09,11,00,53,15.00
2013,09,11,00,54,15.00
2013,09,11,00,55,15.00
2013,09,11,00,56,15.00
2013,09,11,00,57,15.00
2013,09,11,00,58,15.00
2013,09,11,00,59,15.00
2013,09,11,01,00,15.00
2013,09,11,01,01,15.00
2013,09,11,01,02,14.90
2013,09,11,01,03,14.90
2013,09,11,01,04,14.90
2013,09,11,01,05,14.90
2013,09,11,01,06,14.90
2013,09,11,01,07,14.90
2013,09,11,01,08,14.90
2013,09,11,01,09,14.90
2013,09,11,01,10,14.80
2013,09,11,01,11,14.80
2013,09,11,01,12,14.80
2013,09,11,01,13,14.80
2013,09,11,01,14,14.80
2013,09,11,01,15,14.80
2013,09,11,01,16,14.80
2013,09,11,01,17,14.80
2013,09,11,01,18,14.80
2013,09,11,01,19,14.80
2013,09,11,01,20,14.80
2013,09,11,01,21,14.80
2013,09,11,01,22,14.80
2013,09,11,01,23,14.80
2013,09,11,01,24,14.80
2013,09,11,01,25,14.80
2013,09,11,01,26,14.80
2013,09,11,01,27,14.80
2013,09,11,01,28,14.80
2013,09,11,01,29,14.80
2013,09,11,01,30,14.80
2013,09,11,01,31,14.80
2013,09,11,01,32,14.80
2013,09,11,01,33,14.80
2013,09,11,01,34,14.80
2013,09,11,01,35,14.80
2013,09,11,01,36,14.70
2013,09,11,01,37,14.70
2013,09,11,01,38,14.70
2013,09,11,01,39,14.70
2013,09,11,01,40,14.70
2013,09,11,01,41,14.70
2013,09,11,01,42,14.70
2013,09,11,01,43,14.70
2013,09,11,01,44,14.70
2013,09,11,01,45,14.70
2013,09,11,01,46,14.70
2013,09,11,01,47,14.70
2013,09,11,01,48,14.70
2013,09,11,01,49,14.70
2013,09,11,01,50,14.70
2013,09,11,01,51,14.70
2013,09,11,01,52,14.70
2013,09,11,01,53,14.70
2013,09,11,01,54,14.60
2013,09,11,01,55,14.60
2013,09,11,01,56,14.60
2013,09,11,01,57,14.60
2013,09,11,01,58,14.60
2013,09,11,01,59,14.60
2013,09,11,02,00,14.60
2013,09,11,02,01,14.50
2013,09,11,02,02,14.60
2013,09,11,02,03,14.60
2013,09,11,02,04,14.60
2013,09,11,02,05,14.60
2013,09,11,02,06,14.60
2013,09,11,02,07,14.60
2013,09,11,02,08,14.60
2013,09,11,02,09,14.60
2013,09,11,02,10,14.60
2013,09,11,02,11,14.60
2013,09,11,02,12,14.60
2013,09,11,02,13,14.60
2013,09,11,02,14,14.60
2013,09,11,02,15,14.60
2013,09,11,02,16,14.60
2013,09,11,02,17,14.50
2013,09,11,02,18,14.50
2013,09,11,02,19,14.50
2013,09,11,02,20,14.50
2013,09,11,02,21,14.50
2013,09,11,02,22,14.50
2013,09,11,02,23,14.50
2013,09,11,02,24,14.50
2013,09,11,02,25,14.50
2013,09,11,02,26,14.50
2013,09,11,02,27,14.50
2013,09,11,02,28,14.50
2013,09,11,02,29,14.50
2013,09,11,02,30,14.50
2013,09,11,02,31,14.50
2013,09,11,02,32,14.50
2013,09,11,02,33,14.50
2013,09,11,02,34,14.40
2013,09,11,02,35,14.40
2013,09,11,02,36,14.40
2013,09,11,02,37,14.40
2013,09,11,02,38,14.40
2013,09,11,02,39,14.40
2013,09,11,02,40,14.40
2013,09,11,02,41,14.40
2013,09,11,02,42,14.40
2013,09,11,02,43,14.40
2013,09,11,02,44,14.40
2013,09,11,02,45,14.40
2013,09,11,02,46,14.40
2013,09,11,02,47,14.40
2013,09,11,02,48,14.40
2013,09,11,02,49,14.40
2013,09,11,02,50,14.40
2013,09,11,02,51,14.40
2013,09,11,02,52,14.40
2013,09,11,02,53,14.40
2013,09,11,02,54,14.40
2013,09,11,02,55,14.40
2013,09,11,02,56,14.40
2013,09,11,02,57,14.40
2013,09,11,02,58,14.40
2013,09,11,02,59,14.40
2013,09,11,03,00,14.40
2013,09,11,03,01,14.40
2013,09,11,03,02,14.40
2013,09,11,03,03,14.40
2013,09,11,03,04,14.40
2013,09,11,03,05,14.40
2013,09,11,03,06,14.40
2013,09,11,03,07,14.40
2013,09,11,03,08,14.40
2013,09,11,03,09,14.40
2013,09,11,03,10,14.40
2013,09,11,03,11,14.40
2013,09,11,03,12,14.40
2013,09,11,03,13,14.30
2013,09,11,03,14,14.30
2013,09,11,03,15,14.30
2013,09,11,03,16,14.30
2013,09,11,03,17,14.30
2013,09,11,03,18,14.30
2013,09,11,03,19,14.30
2013,09,11,03,20,14.20
2013,09,11,03,21,14.20
2013,09,11,03,22,14.20
2013,09,11,03,23,14.20
2013,09,11,03,24,14.20
2013,09,11,03,25,14.20
2013,09,11,03,26,14.20
2013,09,11,03,27,14.20
2013,09,11,03,28,14.20
2013,09,11,03,29,14.20
2013,09,11,03,30,14.20
2013,09,11,03,31,14.20
2013,09,11,03,32,14.20
2013,09,11,03,33,14.30
2013,09,11,03,34,14.30
2013,09,11,03,35,14.30
2013,09,11,03,36,14.30
2013,09,11,03,37,14.30
2013,09,11,03,38,14.30
2013,09,11,03,39,14.30
2013,09,11,03,40,14.30
2013,09,11,03,41,14.30
2013,09,11,03,42,14.30
2013,09,11,03,43,14.30
2013,09,11,03,44,14.40
2013,09,11,03,45,14.40
2013,09,11,03,46,14.40
2013,09,11,03,47,14.40
2013,09,11,03,48,14.40
2013,09,11,03,49,14.40
2013,09,11,03,50,14.40
2013,09,11,03,51,14.40
2013,09,11,03,52,14.40
2013,09,11,03,53,14.40
2013,09,11,03,54,14.40
2013,09,11,03,55,14.40
2013,09,11,03,56,14.40
2013,09,11,03,57,14.40
2013,09,11,03,58,14.40
2013,09,11,03,59,14.40
2013,09,11,04,00,14.40
2013,09,11,04,01,14.40
2013,09,11,04,02,14.40
2013,09,11,04,03,14.40
2013,09,11,04,04,14.40
2013,09,11,04,05,14.40
2013,09,11,04,06,14.40
2013,09,11,04,07,14.40
2013,09,11,04,08,14.40
2013,09,11,04,09,14.40
2013,09,11,04,10,14.40
2013,09,11,04,11,14.40
2013,09,11,04,12,14.40
2013,09,11,04,13,14.40
2013,09,11,04,14,14.40
2013,09,11,04,15,14.40
2013,09,11,04,16,14.40
2013,09,11,04,17,14.40
2013,09,11,04,18,14.40
2013,09,11,04,19,14.30
2013,09,11,04,20,14.30
2013,09,11,04,21,14.30
2013,09,11,04,22,14.30
2013,09,11,04,23,14.30
2013,09,11,04,24,14.30
2013,09,11,04,25,14.30
2013,09,11,04,26,14.30
2013,09,11,04,27,14.30
2013,09,11,04,28,14.30
2013,09,11,04,29,14.30
2013,09,11,04,30,14.30
2013,09,11,04,31,14.40
2013,09,11,04,32,14.40
2013,09,11,04,33,14.50
2013,09,11,04,34,14.50
2013,09,11,04,35,14.50
2013,09,11,04,36,14.50
2013,09,11,04,37,14.50
2013,09,11,04,38,14.50
2013,09,11,04,39,14.50
2013,09,11,04,40,14.40
2013,09,11,04,41,14.50
2013,09,11,04,42,14.50
2013,09,11,04,43,14.50
2013,09,11,04,44,14.50
2013,09,11,04,45,14.50
2013,09,11,04,46,14.40
2013,09,11,04,47,14.40
2013,09,11,04,48,14.40
2013,09,11,04,49,14.40
2013,09,11,04,50,14.40
2013,09,11,04,51,14.40
2013,09,11,04,52,14.30
2013,09,11,04,53,14.30
2013,09,11,04,54,14.30
2013,09,11,04,55,14.20
2013,09,11,04,56,14.20
2013,09,11,04,57,14.20
2013,09,11,04,58,14.20
2013,09,11,04,59,14.20
2013,09,11,05,00,14.20
2013,09,11,05,01,14.20
2013,09,11,05,02,14.10
2013,09,11,05,03,14.10
2013,09,11,05,04,14.10
2013,09,11,05,05,14.20
2013,09,11,05,06,14.20
2013,09,11,05,07,14.20
2013,09,11,05,08,14.20
2013,09,11,05,09,14.20
2013,09,11,05,10,14.20
2013,09,11,05,11,14.20
2013,09,11,05,12,14.20
2013,09,11,05,13,14.20
2013,09,11,05,14,14.20
2013,09,11,05,15,14.20
2013,09,11,05,16,14.20
2013,09,11,05,17,14.20
2013,09,11,05,18,14.20
2013,09,11,05,19,14.20
2013,09,11,05,20,14.20
2013,09,11,05,21,14.20
2013,09,11,05,22,14.20
2013,09,11,05,23,14.20
2013,09,11,05,24,14.20
2013,09,11,05,25,14.20
2013,09,11,05,26,14.20
2013,09,11,05,27,14.20
2013,09,11,05,28,14.20
2013,09,11,05,29,14.20
2013,09,11,05,30,14.20
2013,09,11,05,31,14.20
2013,09,11,05,32,14.20
2013,09,11,05,33,14.10
2013,09,11,05,34,14.10
2013,09,11,05,35,14.10
2013,09,11,05,36,14.10
2013,09,11,05,37,14.10
2013,09,11,05,38,14.00
2013,09,11,05,39,14.00
2013,09,11,05,40,14.00
2013,09,11,05,41,14.00
2013,09,11,05,42,14.00
2013,09,11,05,43,13.90
2013,09,11,05,44,13.90
2013,09,11,05,45,13.90
2013,09,11,05,46,13.90
2013,09,11,05,47,13.90
2013,09,11,05,48,13.90
2013,09,11,05,49,13.90
2013,09,11,05,50,13.90
2013,09,11,05,51,13.90
2013,09,11,05,52,13.90
2013,09,11,05,53,13.90
2013,09,11,05,54,13.90
2013,09,11,05,55,13.90
2013,09,11,05,56,13.90
2013,09,11,05,57,13.90
2013,09,11,05,58,13.90
2013,09,11,05,59,13.90
2013,09,11,06,00,13.90
2013,09,11,06,01,13.90
2013,09,11,06,02,13.90
2013,09,11,06,03,13.90
2013,09,11,06,04,13.90
2013,09,11,06,05,13.90
2013,09,11,06,06,13.90
2013,09,11,06,07,14.00
2013,09,11,06,08,14.00
2013,09,11,06,09,14.00
2013,09,11,06,10,14.10
2013,09,11,06,11,14.10
2013,09,11,06,12,14.10
2013,09,11,06,13,14.10
2013,09,11,06,14,14.10
2013,09,11,06,15,14.10
2013,09,11,06,16,14.00
2013,09,11,06,17,14.00
2013,09,11,06,18,14.00
2013,09,11,06,19,14.00
2013,09,11,06,20,14.00
2013,09,11,06,21,14.00
2013,09,11,06,22,14.00
2013,09,11,06,23,13.90
2013,09,11,06,24,13.90
2013,09,11,06,25,13.90
2013,09,11,06,26,13.90
2013,09,11,06,27,13.90
2013,09,11,06,28,13.90
2013,09,11,06,29,13.90
2013,09,11,06,30,13.90
2013,09,11,06,31,13.90
2013,09,11,06,32,13.90
2013,09,11,06,33,13.90
2013,09,11,06,34,13.90
2013,09,11,06,35,13.80
2013,09,11,06,36,13.80
2013,09,11,06,37,13.80
2013,09,11,06,38,13.80
2013,09,11,06,39,13.80
2013,09,11,06,40,13.80
2013,09,11,06,41,13.80
2013,09,11,06,42,13.80
2013,09,11,06,43,13.90
2013,09,11,06,44,13.90
2013,09,11,06,45,13.90
2013,09,11,06,46,13.90
2013,09,11,06,47,13.90
2013,09,11,06,48,13.90
2013,09,11,06,49,13.90
2013,09,11,06,50,13.90
2013,09,11,06,51,14.00
2013,09,11,06,52,14.00
2013,09,11,06,53,14.00
2013,09,11,06,54,14.00
2013,09,11,06,55,14.10
2013,09,11,06,56,14.10
2013,09,11,06,57,14.10
2013,09,11,06,58,14.10
2013,09,11,06,59,14.20
2013,09,11,07,00,14.20
2013,09,11,07,01,14.20
2013,09,11,07,02,14.20
2013,09,11,07,03,14.20
2013,09,11,07,04,14.20
2013,09,11,07,05,14.20
2013,09,11,07,06,14.20
2013,09,11,07,07,14.20
2013,09,11,07,08,14.20
2013,09,11,07,09,14.20
2013,09,11,07,10,14.20
2013,09,11,07,11,14.20
2013,09,11,07,12,14.20
2013,09,11,07,13,14.20
2013,09,11,07,14,14.20
2013,09,11,07,15,14.20
2013,09,11,07,16,14.20
2013,09,11,07,17,14.20
2013,09,11,07,18,14.30
2013,09,11,07,19,14.30
2013,09,11,07,20,14.30
2013,09,11,07,21,14.40
2013,09,11,07,22,14.40
2013,09,11,07,23,14.30
2013,09,11,07,24,14.30
2013,09,11,07,25,14.30
2013,09,11,07,26,14.30
2013,09,11,07,27,14.30
2013,09,11,07,28,14.30
2013,09,11,07,29,14.40
2013,09,11,07,30,14.40
2013,09,11,07,31,14.40
2013,09,11,07,32,14.50
2013,09,11,07,33,14.50
2013,09,11,07,34,14.60
2013,09,11,07,35,14.60
2013,09,11,07,36,14.70
2013,09,11,07,37,14.70
2013,09,11,07,38,14.80
2013,09,11,07,39,14.80
2013,09,11,07,40,14.80
2013,09,11,07,41,14.90
2013,09,11,07,42,14.90
2013,09,11,07,43,14.90
2013,09,11,07,44,15.00
2013,09,11,07,45,15.00
2013,09,11,07,46,15.10
2013,09,11,07,47,15.10
2013,09,11,07,48,15.20
2013,09,11,07,49,15.30
2013,09,11,07,50,15.30
2013,09,11,07,51,15.30
2013,09,11,07,52,15.40
2013,09,11,07,53,15.50
2013,09,11,07,54,15.50
2013,09,11,07,55,15.60
2013,09,11,07,56,15.70
2013,09,11,07,57,15.80
2013,09,11,07,58,15.80
2013,09,11,07,59,15.90
2013,09,11,08,00,15.90
2013,09,11,08,01,15.90
2013,09,11,08,02,16.10
2013,09,11,08,03,16.10
2013,09,11,08,04,16.10
2013,09,11,08,05,16.20
2013,09,11,08,06,16.30
2013,09,11,08,07,16.30
2013,09,11,08,08,16.40
2013,09,11,08,09,16.50
2013,09,11,08,10,16.60
2013,09,11,08,11,16.80
2013,09,11,08,12,17.00
2013,09,11,08,13,17.20
2013,09,11,08,14,17.30
2013,09,11,08,15,17.50
2013,09,11,08,16,17.60
2013,09,11,08,17,17.70
2013,09,11,08,18,17.80
2013,09,11,08,19,17.90
2013,09,11,08,20,18.00
2013,09,11,08,21,18.20
2013,09,11,08,22,18.20
2013,09,11,08,23,18.40
2013,09,11,08,24,18.50
2013,09,11,08,25,18.70
2013,09,11,08,26,18.80
2013,09,11,08,27,18.90
2013,09,11,08,28,19.00
2013,09,11,08,29,19.10
2013,09,11,08,30,19.20
2013,09,11,08,31,19.30
2013,09,11,08,32,19.40
2013,09,11,08,33,19.40
2013,09,11,08,34,19.50
2013,09,11,08,35,19.50
2013,09,11,08,36,19.50
2013,09,11,08,37,19.50
2013,09,11,08,38,19.60
2013,09,11,08,39,19.60
2013,09,11,08,40,19.70
2013,09,11,08,41,19.80
2013,09,11,08,42,19.80
2013,09,11,08,43,19.90
2013,09,11,08,44,19.90
2013,09,11,08,45,19.90
2013,09,11,08,46,20.00
2013,09,11,08,47,20.10
2013,09,11,08,48,20.20
2013,09,11,08,49,20.20
2013,09,11,08,50,20.30
2013,09,11,08,51,20.40
2013,09,11,08,52,20.50
2013,09,11,08,53,20.50
2013,09,11,08,54,20.70
2013,09,11,08,55,20.90
2013,09,11,08,56,21.00
2013,09,11,08,57,21.10
2013,09,11,08,58,21.30
2013,09,11,08,59,21.40
2013,09,11,09,00,21.60
2013,09,11,09,01,21.70
2013,09,11,09,02,21.80
2013,09,11,09,03,21.90
2013,09,11,09,04,22.00
2013,09,11,09,05,22.10
2013,09,11,09,06,22.20
2013,09,11,09,07,22.40
2013,09,11,09,08,22.50
2013,09,11,09,09,22.60
2013,09,11,09,10,22.70
2013,09,11,09,11,22.80
2013,09,11,09,12,22.90
2013,09,11,09,13,23.00
2013,09,11,09,14,23.20
2013,09,11,09,15,23.30
2013,09,11,09,16,23.30
2013,09,11,09,17,23.50
2013,09,11,09,18,23.60
2013,09,11,09,19,23.70
2013,09,11,09,20,23.70
2013,09,11,09,21,23.80
2013,09,11,09,22,23.80
2013,09,11,09,23,23.70
2013,09,11,09,24,23.60
2013,09,11,09,25,23.40
2013,09,11,09,26,23.30
2013,09,11,09,27,23.30
2013,09,11,09,28,23.10
2013,09,11,09,29,22.80
2013,09,11,09,30,22.60
2013,09,11,09,31,22.40
2013,09,11,09,32,22.30
2013,09,11,09,33,22.20
2013,09,11,09,34,22.10
2013,09,11,09,35,22.10
2013,09,11,09,36,22.00
2013,09,11,09,37,21.90
2013,09,11,09,38,21.90
2013,09,11,09,39,21.80
2013,09,11,09,40,21.70
2013,09,11,09,41,21.60
2013,09,11,09,42,21.60
2013,09,11,09,43,21.60
2013,09,11,09,44,21.60
2013,09,11,09,45,21.60
2013,09,11,09,46,21.60
2013,09,11,09,47,21.60
2013,09,11,09,48,21.70
2013,09,11,09,49,21.80
2013,09,11,09,50,22.00
2013,09,11,09,51,22.10
2013,09,11,09,52,22.10
2013,09,11,09,53,22.20
2013,09,11,09,54,22.40
2013,09,11,09,55,22.50
2013,09,11,09,56,22.60
2013,09,11,09,57,22.80
2013,09,11,09,58,23.00
2013,09,11,09,59,23.30
2013,09,11,10,00,23.60
2013,09,11,10,01,23.80
2013,09,11,10,02,24.10
2013,09,11,10,03,24.30
2013,09,11,10,04,24.50
2013,09,11,10,05,24.70
2013,09,11,10,06,24.80
2013,09,11,10,07,24.90
2013,09,11,10,08,25.00
2013,09,11,10,09,25.10
2013,09,11,10,10,25.20
2013,09,11,10,11,25.20
2013,09,11,10,12,25.30
2013,09,11,10,13,25.40
2013,09,11,10,14,25.50
2013,09,11,10,15,25.50
2013,09,11,10,16,25.50
2013,09,11,10,17,25.60
2013,09,11,10,18,25.60
2013,09,11,10,19,25.50
2013,09,11,10,20,25.50
2013,09,11,10,21,25.50
2013,09,11,10,22,25.60
2013,09,11,10,23,25.60
2013,09,11,10,24,25.70
2013,09,11,10,25,25.70
2013,09,11,10,26,25.70
2013,09,11,10,27,25.70
2013,09,11,10,28,25.70
2013,09,11,10,29,25.70
2013,09,11,10,30,25.70
2013,09,11,10,31,25.70
2013,09,11,10,32,25.70
2013,09,11,10,33,25.70
2013,09,11,10,34,25.70
2013,09,11,10,35,25.70
2013,09,11,10,36,25.70
2013,09,11,10,37,25.70
2013,09,11,10,38,25.70
2013,09,11,10,39,25.70
2013,09,11,10,40,25.80
2013,09,11,10,41,25.80
2013,09,11,10,42,25.90
2013,09,11,10,43,25.90
2013,09,11,10,44,25.90
2013,09,11,10,45,26.00
2013,09,11,10,46,26.00
2013,09,11,10,47,26.00
2013,09,11,10,48,26.00
2013,09,11,10,49,26.00
2013,09,11,10,50,26.10
2013,09,11,10,51,26.10
2013,09,11,10,52,26.10
2013,09,11,10,53,26.20
2013,09,11,10,54,26.20
2013,09,11,10,55,26.30
2013,09,11,10,56,26.40
2013,09,11,10,57,26.40
2013,09,11,10,58,26.40
2013,09,11,10,59,26.40
2013,09,11,11,00,26.50
2013,09,11,11,01,26.60
2013,09,11,11,02,26.60
2013,09,11,11,03,26.60
2013,09,11,11,04,26.60
2013,09,11,11,05,26.60
2013,09,11,11,06,26.60
2013,09,11,11,07,26.60
2013,09,11,11,08,26.70
2013,09,11,11,09,26.70
2013,09,11,11,10,26.80
2013,09,11,11,11,26.80
2013,09,11,11,12,26.80
2013,09,11,11,13,26.80
2013,09,11,11,14,26.80
2013,09,11,11,15,26.80
2013,09,11,11,16,26.90
2013,09,11,11,17,26.90
2013,09,11,11,18,27.00
2013,09,11,11,19,27.10
2013,09,11,11,20,27.10
2013,09,11,11,21,27.10
2013,09,11,11,22,27.10
2013,09,11,11,23,27.10
2013,09,11,11,24,27.10
2013,09,11,11,25,27.10
2013,09,11,11,26,27.10
2013,09,11,11,27,27.10
2013,09,11,11,28,27.10
2013,09,11,11,29,27.20
2013,09,11,11,30,27.20
2013,09,11,11,31,27.20
2013,09,11,11,32,27.30
2013,09,11,11,33,27.30
2013,09,11,11,34,27.30
2013,09,11,11,35,27.20
2013,09,11,11,36,27.20
2013,09,11,11,37,27.10
2013,09,11,11,38,27.10
2013,09,11,11,39,27.10
2013,09,11,11,40,27.10
2013,09,11,11,41,27.10
2013,09,11,11,42,27.20
2013,09,11,11,43,27.20
2013,09,11,11,44,27.20
2013,09,11,11,45,27.30
2013,09,11,11,46,27.30
2013,09,11,11,47,27.40
2013,09,11,11,48,27.30
2013,09,11,11,49,27.30
2013,09,11,11,50,27.20
2013,09,11,11,51,27.20
2013,09,11,11,52,27.20
2013,09,11,11,53,27.20
2013,09,11,11,54,27.20
2013,09,11,11,55,27.20
2013,09,11,11,56,27.30
2013,09,11,11,57,27.30
2013,09,11,11,58,27.40
2013,09,11,11,59,27.40
2013,09,11,12,00,27.40
2013,09,11,12,01,27.30
2013,09,11,12,02,27.40
2013,09,11,12,03,27.50
2013,09,11,12,04,27.60
2013,09,11,12,05,27.70
2013,09,11,12,06,27.70
2013,09,11,12,07,27.80
2013,09,11,12,08,27.80
2013,09,11,12,09,27.80
2013,09,11,12,10,27.80
2013,09,11,12,11,27.80
2013,09,11,12,12,27.90
2013,09,11,12,13,28.00
2013,09,11,12,14,28.10
2013,09,11,12,15,28.10
2013,09,11,12,16,28.10
2013,09,11,12,17,28.20
2013,09,11,12,18,28.20
2013,09,11,12,19,28.30
2013,09,11,12,20,28.40
2013,09,11,12,21,28.40
2013,09,11,12,22,28.40
2013,09,11,12,23,28.40
2013,09,11,12,24,28.30
2013,09,11,12,25,28.30
2013,09,11,12,26,28.40
2013,09,11,12,27,28.40
2013,09,11,12,28,28.50
2013,09,11,12,29,28.60
2013,09,11,12,30,28.60
2013,09,11,12,31,28.60
2013,09,11,12,32,28.70
2013,09,11,12,33,28.70
2013,09,11,12,34,28.70
2013,09,11,12,35,28.80
2013,09,11,12,36,28.70
2013,09,11,12,37,28.70
2013,09,11,12,38,28.70
2013,09,11,12,39,28.70
2013,09,11,12,40,28.80
2013,09,11,12,41,28.80
2013,09,11,12,42,28.90
2013,09,11,12,43,28.90
2013,09,11,12,44,29.00
2013,09,11,12,45,29.10
2013,09,11,12,46,29.10
2013,09,11,12,47,29.10
2013,09,11,12,48,29.00
2013,09,11,12,49,28.90
2013,09,11,12,50,28.90
2013,09,11,12,51,28.90
2013,09,11,12,52,28.90
2013,09,11,12,53,28.90
2013,09,11,12,54,29.00
2013,09,11,12,55,29.10
2013,09,11,12,56,29.20
2013,09,11,12,57,29.30
2013,09,11,12,58,29.40
2013,09,11,12,59,29.40
2013,09,11,13,00,29.40
2013,09,11,13,01,29.40
2013,09,11,13,02,29.40
2013,09,11,13,03,29.40
2013,09,11,13,04,29.40
2013,09,11,13,05,29.40
2013,09,11,13,06,29.50
2013,09,11,13,07,29.50
2013,09,11,13,08,29.60
2013,09,11,13,09,29.60
2013,09,11,13,10,29.60
2013,09,11,13,11,29.60
2013,09,11,13,12,29.70
2013,09,11,13,13,29.70
2013,09,11,13,14,29.80
2013,09,11,13,15,29.80
2013,09,11,13,16,29.80
2013,09,11,13,17,29.70
2013,09,11,13,18,29.70
2013,09,11,13,19,29.70
2013,09,11,13,20,29.60
2013,09,11,13,21,29.60
2013,09,11,13,22,29.70
2013,09,11,13,23,29.70
2013,09,11,13,24,29.60
2013,09,11,13,25,29.50
2013,09,11,13,26,29.50
2013,09,11,13,27,29.50
2013,09,11,13,28,29.50
2013,09,11,13,29,29.60
2013,09,11,13,30,29.60
2013,09,11,13,31,29.60
2013,09,11,13,32,29.50
2013,09,11,13,33,29.50
2013,09,11,13,34,29.50
2013,09,11,13,35,29.50
2013,09,11,13,36,29.60
2013,09,11,13,37,29.60
2013,09,11,13,38,29.60
2013,09,11,13,39,29.60
2013,09,11,13,40,29.60
2013,09,11,13,41,29.70
2013,09,11,13,42,29.80
2013,09,11,13,43,29.80
2013,09,11,13,44,29.90
2013,09,11,13,45,29.90
2013,09,11,13,46,30.00
2013,09,11,13,47,30.10
2013,09,11,13,48,30.10
2013,09,11,13,49,30.20
2013,09,11,13,50,30.20
2013,09,11,13,51,30.20
2013,09,11,13,52,30.20
2013,09,11,13,53,30.20
2013,09,11,13,54,30.20
2013,09,11,13,55,30.20
2013,09,11,13,56,30.30
2013,09,11,13,57,30.30
2013,09,11,13,58,30.40
2013,09,11,13,59,30.30
2013,09,11,14,00,30.30
2013,09,11,14,01,30.40
2013,09,11,14,02,30.40
2013,09,11,14,03,30.40
2013,09,11,14,04,30.60
2013,09,11,14,05,30.40
2013,09,11,14,06,30.40
2013,09,11,14,07,30.40
2013,09,11,14,08,30.40
2013,09,11,14,09,30.30
2013,09,11,14,10,30.20
2013,09,11,14,11,30.10
2013,09,11,14,12,30.00
2013,09,11,14,13,29.90
2013,09,11,14,14,29.90
2013,09,11,14,15,30.00
2013,09,11,14,16,30.10
2013,09,11,14,17,30.20
2013,09,11,14,18,30.30
2013,09,11,14,19,30.40
2013,09,11,14,20,30.60
2013,09,11,14,21,30.70
2013,09,11,14,22,30.70
2013,09,11,14,23,30.60
2013,09,11,14,24,30.60
2013,09,11,14,25,30.60
2013,09,11,14,26,30.60
2013,09,11,14,27,30.70
2013,09,11,14,28,30.70
2013,09,11,14,29,30.70
2013,09,11,14,30,30.60
2013,09,11,14,31,30.60
2013,09,11,14,32,30.70
2013,09,11,14,33,30.80
2013,09,11,14,34,30.80
2013,09,11,14,35,30.90
2013,09,11,14,36,31.00
2013,09,11,14,37,31.00
2013,09,11,14,38,31.00
2013,09,11,14,39,31.00
2013,09,11,14,40,31.00
2013,09,11,14,41,31.00
2013,09,11,14,42,31.10
2013,09,11,14,43,31.10
2013,09,11,14,44,31.10
2013,09,11,14,45,31.00
2013,09,11,14,46,31.00
2013,09,11,14,47,31.10
2013,09,11,14,48,31.20
2013,09,11,14,49,31.20
2013,09,11,14,50,31.30
2013,09,11,14,51,31.30
2013,09,11,14,52,31.30
2013,09,11,14,53,31.30
2013,09,11,14,54,31.40
2013,09,11,14,55,31.50
2013,09,11,14,56,31.60
2013,09,11,14,57,31.60
2013,09,11,14,58,31.60
2013,09,11,14,59,31.70
2013,09,11,15,00,31.70
2013,09,11,15,01,31.80
2013,09,11,15,02,31.80
2013,09,11,15,03,31.90
2013,09,11,15,04,31.90
2013,09,11,15,05,31.90
2013,09,11,15,06,31.90
2013,09,11,15,07,32.00
2013,09,11,15,08,32.00
2013,09,11,15,09,31.90
2013,09,11,15,10,31.90
2013,09,11,15,11,31.90
2013,09,11,15,12,32.00
2013,09,11,15,13,32.10
2013,09,11,15,14,32.10
2013,09,11,15,15,32.20
2013,09,11,15,16,32.30
2013,09,11,15,17,32.30
2013,09,11,15,18,32.40
2013,09,11,15,19,32.40
2013,09,11,15,20,32.40
2013,09,11,15,21,32.40
2013,09,11,15,22,32.40
2013,09,11,15,23,32.50
2013,09,11,15,24,32.50
2013,09,11,15,25,32.40
2013,09,11,15,26,32.40
2013,09,11,15,27,32.20
2013,09,11,15,28,32.20
2013,09,11,15,29,32.10
2013,09,11,15,30,32.00
2013,09,11,15,31,31.90
2013,09,11,15,32,31.90
2013,09,11,15,33,31.80
2013,09,11,15,34,31.60
2013,09,11,15,35,31.10
2013,09,11,15,36,30.50
2013,09,11,15,37,29.90
2013,09,11,15,38,29.40
2013,09,11,15,39,29.10
2013,09,11,15,40,28.80
2013,09,11,15,41,28.40
2013,09,11,15,42,28.00
2013,09,11,15,43,27.90
2013,09,11,15,44,27.80
2013,09,11,15,45,27.60
2013,09,11,15,46,27.50
2013,09,11,15,47,27.20
2013,09,11,15,48,27.00
2013,09,11,15,49,26.60
2013,09,11,15,50,26.40
2013,09,11,15,51,26.30
2013,09,11,15,52,26.20
2013,09,11,15,53,26.10
2013,09,11,15,54,26.00
2013,09,11,15,55,25.90
2013,09,11,15,56,25.70
2013,09,11,15,57,25.60
2013,09,11,15,58,25.40
2013,09,11,15,59,25.30
2013,09,11,16,00,25.10
2013,09,11,16,01,24.90
2013,09,11,16,02,24.90
2013,09,11,16,03,24.90
2013,09,11,16,04,24.90
2013,09,11,16,05,25.00
2013,09,11,16,06,25.10
2013,09,11,16,07,25.10
2013,09,11,16,08,25.20
2013,09,11,16,09,25.30
2013,09,11,16,10,25.30
2013,09,11,16,11,25.30
2013,09,11,16,12,25.30
2013,09,11,16,13,25.30
2013,09,11,16,14,25.40
2013,09,11,16,15,25.50
2013,09,11,16,16,25.40
2013,09,11,16,17,25.40
2013,09,11,16,18,25.30
2013,09,11,16,19,25.20
2013,09,11,16,20,25.20
2013,09,11,16,21,25.10
2013,09,11,16,22,25.00
2013,09,11,16,23,25.00
2013,09,11,16,24,24.90
2013,09,11,16,25,24.80
2013,09,11,16,26,24.80
2013,09,11,16,27,24.80
2013,09,11,16,28,24.80
2013,09,11,16,29,24.90
2013,09,11,16,30,25.00
2013,09,11,16,31,25.10
2013,09,11,16,32,25.20
2013,09,11,16,33,25.20
2013,09,11,16,34,25.40
2013,09,11,16,35,25.40
2013,09,11,16,36,25.60
2013,09,11,16,37,25.80
2013,09,11,16,38,25.90
2013,09,11,16,39,26.00
2013,09,11,16,40,26.00
2013,09,11,16,41,25.90
2013,09,11,16,42,25.90
2013,09,11,16,43,25.90
2013,09,11,16,44,25.90
2013,09,11,16,45,25.90
2013,09,11,16,46,25.90
2013,09,11,16,47,25.90
2013,09,11,16,48,25.80
2013,09,11,16,49,25.70
2013,09,11,16,50,25.60
2013,09,11,16,51,25.40
2013,09,11,16,52,25.30
2013,09,11,16,53,25.20
2013,09,11,16,54,25.20
2013,09,11,16,55,25.20
2013,09,11,16,56,25.20
2013,09,11,16,57,25.20
2013,09,11,16,58,25.10
2013,09,11,16,59,25.10
2013,09,11,17,00,25.10
2013,09,11,17,01,25.00
2013,09,11,17,02,25.00
2013,09,11,17,03,25.10
2013,09,11,17,04,25.10
2013,09,11,17,05,25.10
2013,09,11,17,06,25.10
2013,09,11,17,07,25.10
2013,09,11,17,08,25.10
2013,09,11,17,09,25.00
2013,09,11,17,10,25.00
2013,09,11,17,11,24.90
2013,09,11,17,12,24.90
2013,09,11,17,13,24.90
2013,09,11,17,14,25.00
2013,09,11,17,15,25.00
2013,09,11,17,16,25.00
2013,09,11,17,17,25.00
2013,09,11,17,18,25.00
2013,09,11,17,19,25.00